Location: Newark
(15.4608°S, 41.1635°W)
Time: 00:19:24
(UTC+00:00)

Vanguard 1 - Visible Passes

Search period start: 31 July 2021 00:00
Search period end: 10 August 2021 00:00
Orbit: 651 x 3831 km, 34.2° (Epoch: 29 July)

Date Brightness Start Highest point End Pass type
(mag) Time Alt. Az. Time Alt. Az. Time Alt. Az.
31 Jul 12.9 00:14:56 10° WNW 00:36:31 62° SW 00:36:31 62° SW visible
31 Jul 14.1 02:47:30 10° WSW 02:49:15 13° WSW 02:49:15 13° WSW visible
31 Jul 12.3 05:39:16 31° SE 05:39:16 31° SE 05:43:46 10° E visible
31 Jul 10.4 07:51:59 23° WSW 07:58:33 81° NW 08:04:25 10° NE visible
31 Jul 12.8 22:10:40 10° NW 22:31:17 84° NE 22:43:46 40° ESE visible
01 Aug 13.1 00:37:24 10° W 00:56:30 52° SW 00:56:30 52° SW visible
01 Aug 11.8 05:59:09 45° SE 05:59:09 45° SE 06:05:17 10° E visible
01 Aug 10.7 08:11:52 17° WSW 08:19:21 53° NW 08:24:58 10° NE visible
01 Aug 12.8 22:31:56 10° WNW 22:53:00 83° SSW 23:03:44 45° SE visible
02 Aug 13.3 01:00:12 10° W 01:16:29 43° SW 01:16:29 43° SW visible
02 Aug13.704:06:19ESE04:06:19ESE03:29:12WSWvisible
02 Aug 11.3 06:19:02 61° SSE 06:19:02 61° SSE 06:26:37 10° ENE visible
02 Aug 11.2 08:31:45 10° WSW 08:39:56 33° NW 08:45:08 10° NNE visible
02 Aug 12.9 20:30:57 10° NNW 20:47:37 58° NE 21:10:31 10° ESE visible
02 Aug 12.9 22:53:32 10° WNW 23:14:56 72° SSW 23:23:42 50° SE visible
03 Aug 13.5 01:23:13 10° W 01:36:26 35° SW 01:36:26 35° SW visible
03 Aug 11.0 06:38:57 70° SSW 06:40:17 79° SSE 06:47:43 10° ENE visible
03 Aug 12.8 20:51:32 10° NW 21:08:52 72° NE 21:30:55 14° ESE visible
03 Aug 12.9 23:15:29 10° WNW 23:37:07 62° SSW 23:43:38 52° SSE visible
04 Aug 13.7 01:46:22 10° WSW 01:56:21 28° SW 01:56:21 28° SW visible
04 Aug 13.1 04:46:10 17° E 04:46:10 17° E 04:47:43 10° E visible
04 Aug 10.9 06:58:53 57° WSW 07:01:24 78° NW 07:08:32 10° NE visible
04 Aug 12.8 21:12:25 10° NW 21:30:18 85° NE 21:50:48 18° ESE visible
04 Aug 13.0 23:37:45 10° W 23:59:32 55° SSW 00:03:31 52° S visible
05 Aug 13.9 02:09:26 10° WSW 02:16:15 22° SW 02:16:15 22° SW visible
05 Aug 12.7 05:06:07 26° E 05:06:07 26° E 05:09:16 10° E visible
05 Aug 11.1 07:18:51 41° W 07:22:14 55° NW 07:29:04 10° NE visible
05 Aug 12.8 21:33:35 10° WNW 21:52:00 82° SSW 22:10:40 23° SE visible
06 Aug 13.1 00:00:18 10° W 00:22:11 50° SSW 00:23:23 49° S visible
06 Aug 14.0 02:32:19 10° WSW 02:36:07 16° WSW 02:36:07 16° WSW visible
06 Aug 12.2 05:26:05 38° E 05:26:05 38° E 05:30:35 10° ENE visible
06 Aug 11.5 07:38:49 28° W 07:42:49 37° NW 07:49:14 10° NNE visible
06 Aug 12.9 21:55:04 10° WNW 22:13:57 70° SSW 22:30:30 27° SE visible
07 Aug 13.2 00:23:04 10° W 00:43:13 45° SSW 00:43:13 45° SSW visible
07 Aug 14.2 02:54:56 10° WSW 02:55:56 12° WSW 02:55:56 12° WSW visible
07 Aug 11.8 05:46:04 51° ENE 05:46:04 51° ENE 05:51:40 10° ENE visible
07 Aug 11.9 07:58:48 18° W 08:03:15 24° NW 08:08:53 10° N visible
07 Aug 13.0 22:16:52 10° WNW 22:36:11 61° SSW 22:50:17 32° SE visible
08 Aug 13.3 00:45:55 10° WSW 01:03:00 41° SSW 01:03:00 41° SSW visible
08 Aug13.803:53:19E03:53:19E03:15:42WSWvisible
08 Aug 11.5 06:06:03 60° NNE 06:06:03 60° NNE 06:12:29 10° NE visible
08 Aug 12.3 08:18:56 10° W 08:23:40 14° NW 08:27:25 10° NNW visible
08 Aug 13.1 22:38:57 10° W 22:58:41 54° SSW 23:10:02 36° SE visible
09 Aug 13.5 01:08:44 10° WSW 01:22:44 36° SW 01:22:44 36° SW visible
09 Aug13.504:13:17ENE04:13:17ENE03:35:27WSWvisible
09 Aug 11.5 06:26:01 54° NNW 06:26:01 54° NNW 06:33:00 10° NE visible
09 Aug 12.8 20:35:57 10° WNW 20:51:32 80° SSW 21:15:27 10° ESE visible
09 Aug 13.2 23:01:17 10° W 23:21:26 49° SSW 23:29:44 40° SSE visible
